Block Island, RI

10:52 PM EDT on June 22, 2017 (GMT -0400)
Block Island State

Weather History for KBID - February, 2014

Change the Weather History Date:

Sunday, February 23, 2014

  Actual Average Record
Temperature  
Mean Temperature 42 °F -  
Max Temperature 48 °F 40 °F 55 °F (2012)
Min Temperature 37 °F 30 °F 6 °F (1972)
Degree Days  
Heating Degree Days 22    
Moisture  
Dew Point 34 °F    
Average Humidity 73    
Maximum Humidity 87    
Minimum Humidity 57    
Precipitation  
Precipitation 0.00 in - - ()
Sea Level Pressure  
Sea Level Pressure 29.93 in    
Wind  
Wind Speed 11 mph (WSW)    
Max Wind Speed 17 mph    
Max Gust Speed 21 mph    
Visibility 10 miles    
Events      
Averages and records for this station are not official NWS values.
T = Trace of Precipitation, MM = Missing Value Source: NWS Daily Summary

Daily Weather History Graph

Daily Weather History Graph

Search for Another Location

Airport or City:

Trip Planner

Search our weather history database for the weather conditions in past years. The results will help you decide how hot, cold, wet, or windy it might be!

Date:

Astronomy

Feb. 23, 2014 Rise Set
Actual Time 6:29 AM EST 5:30 PM EST
Civil Twilight 6:01 AM EST 5:58 PM EST
Nautical Twilight 5:29 AM EST 6:30 PM EST
Astronomical Twilight 4:58 AM EST 7:02 PM EST
Moon 1:26 AM EST 11:28 AM EST
Length of Visible Light 11h 56m
Length of Day
11h 00m
Last Quarter, 39% of the Moon is Illuminated
Feb 23
Last Quarter
Mar 1
New
Mar 8
First Quarter
Mar 16
Full
Mar 23
Last Quarter

Hourly Weather History & Observations

Time (EST) Temp. Windchill Dew Point Humidity Pressure Visibility Wind Dir Wind Speed Gust Speed Precip Events Conditions
12:15 AM 41.0 °F 33.5 °F 33.8 °F 76% 30.02 in 10.0 mi SW 13.8 mph - N/A   Clear
12:35 AM 41.0 °F 33.9 °F 33.8 °F 76% 30.02 in 10.0 mi SW 12.7 mph - N/A   Clear
12:55 AM 41.0 °F 33.9 °F 33.8 °F 76% 30.02 in 10.0 mi SW 12.7 mph 18.4 mph N/A   Clear
1:15 AM 41.0 °F 33.9 °F 33.8 °F 76% 30.02 in 10.0 mi SSW 12.7 mph - N/A   Clear
1:35 AM 41.0 °F 34.3 °F 33.8 °F 76% 30.02 in 10.0 mi SW 11.5 mph - N/A   Clear
1:55 AM 41.0 °F 34.7 °F 33.8 °F 76% 30.02 in 10.0 mi WSW 10.4 mph - N/A   Clear
2:15 AM 41.0 °F 33.9 °F 33.8 °F 76% 30.02 in 10.0 mi SW 12.7 mph - N/A   Clear
2:35 AM 41.0 °F 33.9 °F 33.8 °F 76% 30.02 in 10.0 mi SW 12.7 mph - N/A   Clear
2:55 AM 41.0 °F 34.7 °F 33.8 °F 76% 30.02 in 10.0 mi SW 10.4 mph - N/A   Clear
3:15 AM 41.0 °F 33.9 °F 33.8 °F 76% 30.02 in 10.0 mi SW 12.7 mph - N/A   Clear
3:35 AM 41.0 °F 34.7 °F 33.8 °F 76% 30.02 in 10.0 mi SW 10.4 mph - N/A   Clear
3:55 AM 39.2 °F 32.5 °F 35.6 °F 87% 30.02 in 10.0 mi SW 10.4 mph - N/A   Clear
4:15 AM 39.2 °F 35.0 °F 35.6 °F 87% 30.03 in 10.0 mi West 5.8 mph - N/A   Clear
4:35 AM 39.2 °F 33.6 °F 33.8 °F 81% 30.03 in 10.0 mi WSW 8.1 mph - N/A   Clear
4:55 AM 39.2 °F 33.6 °F 33.8 °F 81% 30.02 in 10.0 mi WSW 8.1 mph - N/A   Clear
5:15 AM 39.2 °F 33.0 °F 35.6 °F 87% 30.02 in 10.0 mi SW 9.2 mph - N/A   Clear
5:35 AM 39.2 °F 32.5 °F 35.6 °F 87% 30.02 in 10.0 mi SW 10.4 mph - N/A   Clear
5:55 AM 39.2 °F 31.6 °F 35.6 °F 87% 30.01 in 10.0 mi SW 12.7 mph - N/A   Clear
6:15 AM 39.2 °F 32.0 °F 35.6 °F 87% 30.01 in 10.0 mi SW 11.5 mph - N/A   Clear
6:35 AM 41.0 °F 34.7 °F 35.6 °F 81% 30.00 in 10.0 mi SW 10.4 mph - N/A   Clear
6:55 AM 41.0 °F 33.9 °F 35.6 °F 81% 30.00 in 10.0 mi SW 12.7 mph - N/A   Clear
7:15 AM 41.0 °F 33.9 °F 35.6 °F 81% 30.00 in 10.0 mi SSW 12.7 mph - N/A   Clear
7:35 AM 41.0 °F 33.9 °F 35.6 °F 81% 30.00 in 10.0 mi SW 12.7 mph - N/A   Clear
7:55 AM 42.8 °F 35.8 °F 35.6 °F 76% 30.01 in 10.0 mi SW 13.8 mph - N/A   Clear
8:15 AM 42.8 °F 36.2 °F 35.6 °F 76% 30.01 in 10.0 mi SW 12.7 mph - N/A   Clear
8:35 AM 42.8 °F 35.4 °F 35.6 °F 76% 30.01 in 10.0 mi SW 15.0 mph - N/A   Clear
8:55 AM 42.8 °F 36.6 °F 35.6 °F 76% 30.01 in 10.0 mi SW 11.5 mph - N/A   Clear
9:15 AM 42.8 °F 35.8 °F 35.6 °F 76% 30.01 in 10.0 mi SW 13.8 mph - N/A   Clear
9:35 AM 44.6 °F 37.8 °F 35.6 °F 71% 30.00 in 10.0 mi SW 15.0 mph - N/A   Clear
9:55 AM 44.6 °F 37.4 °F 35.6 °F 71% 30.00 in 10.0 mi SW 16.1 mph 19.6 mph N/A   Clear
10:15 AM 44.6 °F 37.2 °F 35.6 °F 71% 30.00 in 10.0 mi SW 17.3 mph - N/A   Clear
10:35 AM 44.6 °F 37.4 °F 35.6 °F 71% 29.99 in 10.0 mi SW 16.1 mph 20.7 mph N/A   Clear
10:55 AM 44.6 °F 37.4 °F 35.6 °F 71% 29.98 in 10.0 mi SW 16.1 mph 20.7 mph N/A   Clear
11:15 AM 46.4 °F 40.1 °F 37.4 °F 71% 29.98 in 10.0 mi SW 15.0 mph 20.7 mph N/A   Clear
11:35 AM 46.4 °F 40.4 °F 35.6 °F 66% 29.97 in 10.0 mi WSW 13.8 mph - N/A   Clear
11:55 AM 48.2 °F - 35.6 °F 62% 29.95 in 10.0 mi WSW 15.0 mph - N/A   Clear
12:15 PM 46.4 °F 40.4 °F 35.6 °F 66% 29.94 in 10.0 mi WSW 13.8 mph - N/A   Clear
12:35 PM 46.4 °F 41.1 °F 35.6 °F 66% 29.93 in 10.0 mi WSW 11.5 mph - N/A   Clear
12:55 PM 46.4 °F 40.7 °F 35.6 °F 66% 29.92 in 10.0 mi SW 12.7 mph - N/A   Clear
1:15 PM 46.4 °F 40.7 °F 35.6 °F 66% 29.92 in 10.0 mi WSW 12.7 mph - N/A   Clear
1:35 PM 46.4 °F 41.5 °F 35.6 °F 66% 29.91 in 10.0 mi WSW 10.4 mph - N/A   Clear
1:55 PM 46.4 °F 41.1 °F 35.6 °F 66% 29.90 in 10.0 mi WSW 11.5 mph - N/A   Clear
2:15 PM 48.2 °F - 35.6 °F 62% 29.89 in 10.0 mi West 6.9 mph - N/A   Clear
2:35 PM 48.2 °F - 33.8 °F 58% 29.88 in 10.0 mi WSW 6.9 mph - N/A   Clear
2:55 PM 48.2 °F - 33.8 °F 58% 29.88 in 10.0 mi SW 6.9 mph - N/A   Clear
3:15 PM 48.2 °F - 33.8 °F 58% 29.88 in 10.0 mi WSW 8.1 mph - N/A   Clear
3:35 PM 48.2 °F - 33.8 °F 58% 29.89 in 10.0 mi WSW 6.9 mph - N/A   Clear
3:55 PM 48.2 °F - 33.8 °F 58% 29.88 in 10.0 mi SW 6.9 mph - N/A   Clear
4:15 PM 46.4 °F 42.9 °F 33.8 °F 62% 29.87 in 10.0 mi SW 6.9 mph - N/A   Clear
4:35 PM 44.6 °F 40.2 °F 33.8 °F 66% 29.87 in 10.0 mi SW 8.1 mph - N/A   Clear
4:55 PM 42.8 °F 37.5 °F 33.8 °F 70% 29.87 in 10.0 mi SW 9.2 mph - N/A   Clear
5:15 PM 42.8 °F 38.6 °F 33.8 °F 70% 29.86 in 10.0 mi WSW 6.9 mph - N/A   Clear
5:35 PM 42.8 °F 38.0 °F 33.8 °F 70% 29.86 in 10.0 mi WSW 8.1 mph - N/A   Clear
5:55 PM 41.0 °F 35.2 °F 33.8 °F 76% 29.85 in 10.0 mi WSW 9.2 mph - N/A   Clear
6:15 PM 39.2 °F 33.6 °F 32.0 °F 75% 29.85 in 10.0 mi WSW 8.1 mph - N/A   Clear
6:35 PM 39.2 °F 33.0 °F 33.8 °F 81% 29.84 in 10.0 mi SW 9.2 mph - N/A   Clear
6:55 PM 39.2 °F 31.6 °F 33.8 °F 81% 29.81 in 10.0 mi South 12.7 mph - N/A   Clear
7:15 PM 39.2 °F 33.0 °F 33.8 °F 81% 29.84 in 10.0 mi WSW 9.2 mph - N/A   Mostly Cloudy
7:35 PM 39.2 °F 33.0 °F 33.8 °F 81% 29.84 in 10.0 mi WSW 9.2 mph - N/A   Scattered Clouds
7:55 PM 39.2 °F 33.0 °F 33.8 °F 81% 29.83 in 10.0 mi WSW 9.2 mph - N/A   Clear
8:15 PM 39.2 °F 33.6 °F 33.8 °F 81% 29.82 in 10.0 mi WSW 8.1 mph - N/A   Clear
8:35 PM 37.4 °F 30.8 °F 33.8 °F 87% 29.83 in 10.0 mi WSW 9.2 mph - N/A   Clear
8:55 PM 37.4 °F 31.4 °F 33.8 °F 87% 29.84 in 10.0 mi West 8.1 mph - N/A   Clear
9:15 PM 39.2 °F 33.6 °F 32.0 °F 75% 29.83 in 10.0 mi West 8.1 mph - N/A   Scattered Clouds
9:35 PM 39.2 °F 33.6 °F 30.2 °F 70% 29.82 in 10.0 mi West 8.1 mph - N/A   Mostly Cloudy
9:55 PM 41.0 °F 35.8 °F 28.4 °F 61% 29.82 in 10.0 mi West 8.1 mph - N/A   Mostly Cloudy
10:15 PM 42.8 °F 38.6 °F 28.4 °F 57% 29.81 in 10.0 mi West 6.9 mph - N/A   Overcast
10:35 PM 41.0 °F 35.8 °F 28.4 °F 61% 29.81 in 10.0 mi West 8.1 mph - N/A   Partly Cloudy
10:55 PM 41.0 °F 35.2 °F 28.4 °F 61% 29.80 in 10.0 mi West 9.2 mph - N/A   Scattered Clouds
11:15 PM 41.0 °F 35.8 °F 28.4 °F 61% 29.80 in 10.0 mi West 8.1 mph - N/A   Overcast
11:35 PM 41.0 °F 35.8 °F 28.4 °F 61% 29.80 in 10.0 mi West 8.1 mph - N/A   Overcast
11:55 PM 39.2 °F 34.2 °F 28.4 °F 65% 29.79 in 10.0 mi WSW 6.9 mph - N/A   Overcast